Back to catalog

SL-12 DEB

AliveHEO
NORAD 44560·DEBRIS·🇷🇺 Russia

Launched Sep 2, 2010 from Baikonur Cosmodrome

Loading…

Next Passes (next 24 hours)

TLE

FreshSource: Space-Track

Epoch: Sep 14, 2026, 05:00 UTC

1 44560U 10041AF  26257.20893297  .00001259  00000-0  33406-2 0  9992
2 44560  65.3229 354.3053 5496507 261.0802  36.1404  4.57615945114758

Track SL-12 DEB in real time with AllMySat

Download on the App Store